GFSSE_700_spd_156.txt.gz
Wind_Speed
16 13 11 10 8 6 5 5 5 2 1 1 2 3 4 5 6 6 6 6 6 6 6 6 6 6 6 8 8 8 6 5 4 4 4 5 5 5 4 3 3 3 3
15 13 12 11 10 9 6 5 4 2 2 4 3 2 3 4 5 6 6 5 5 5 5 5 6 6 7 7 7 7 7 5 4 4 4 5 5 4 4 4 4 4 4
17 14 12 11 11 8 4 3 3 4 5 7 6 5 5 6 6 8 7 7 7 7 7 7 8 8 9 8 7 7 7 6 5 4 4 4 4 4 5 6 6 5 5
19 15 14 13 10 9 6 5 6 8 8 8 8 7 7 8 8 9 10 9 10 10 9 9 9 9 9 9 9 8 7 7 7 5 4 4 5 5 6 6 7 6 6
16 16 15 13 8 8 13 8 10 10 10 10 9 8 8 10 11 12 12 12 12 13 12 12 11 11 11 11 11 11 9 9 8 7 5 5 7 7 8 9 8 7 8
14 17 17 15 14 13 12 10 12 11 11 11 11 10 10 11 12 13 14 14 14 14 14 15 16 15 15 14 14 13 12 10 10 8 7 6 8 9 10 10 9 9 9
12 14 14 14 12 12 13 12 13 12 12 12 12 11 12 12 13 13 13 15 15 15 15 15 16 16 16 16 17 18 18 14 13 13 10 9 8 10 12 13 14 12 12
10 11 12 13 12 13 12 12 13 13 12 13 13 14 14 14 14 14 15 16 17 17 17 18 18 18 19 18 18 18 18 19 17 17 15 14 13 10 12 14 16 14 13
8 9 10 11 11 11 12 12 13 13 14 15 16 17 16 17 17 18 18 19 19 19 20 20 21 20 21 21 21 22 21 21 21 21 20 18 17 14 12 16 17 18 16
8 9 10 10 9 10 11 12 14 15 16 17 18 19 20 21 22 23 23 23 24 24 24 24 24 23 23 23 24 24 24 25 24 24 24 22 21 20 18 15 18 20 18
8 7 8 7 7 9 12 14 16 17 18 20 20 23 25 27 28 28 28 28 28 29 28 28 26 25 27 26 26 26 25 25 25 27 27 26 25 23 23 23 24 25 24
9 8 8 8 10 14 15 16 17 19 21 24 25 26 26 27 28 29 29 30 31 31 31 31 29 28 29 30 27 26 25 25 25 27 26 25 26 25 26 27 33 30 29
12 10 10 12 13 12 11 12 14 16 19 21 23 25 27 29 30 31 32 32 32 32 31 32 30 29 28 26 27 28 28 28 28 28 28 26 26 25 24 29 29 36 37
14 13 13 13 11 11 11 12 14 17 18 20 22 24 26 26 27 27 27 27 29 29 30 29 28 28 29 29 30 30 32 34 35 33 30 27 29 30 32 28 31 34 35
17 16 14 12 10 9 11 13 14 16 17 18 19 19 19 19 20 21 22 24 25 26 28 29 29 28 27 29 31 34 34 34 34 35 33 31 28 29 30 29 31 32 35
19 17 14 13 12 11 12 14 17 16 16 17 16 15 14 14 15 16 18 19 21 22 24 25 27 29 29 28 27 27 29 30 32 32 32 31 30 31 31 30 31 34 40
22 19 17 17 17 16 16 17 19 19 17 17 16 15 14 15 16 17 18 20 21 22 23 24 24 24 26 27 27 26 26 28 30 31 32 32 31 31 34 35 33 34 38
23 22 22 22 22 20 19 20 20 19 19 19 19 19 19 20 20 20 21 21 21 22 23 24 25 26 27 26 26 26 24 24 28 32 33 34 35 36 39 41 38 37 39
26 25 25 25 26 25 23 22 22 21 20 19 18 19 19 19 19 19 22 24 25 25 25 25 26 27 28 28 28 28 27 26 26 30 34 36 41 42 40 43 43 41 40
26 27 28 28 27 28 26 25 24 24 22 21 20 20 18 20 21 21 21 23 25 26 26 26 26 26 27 26 27 27 29 29 29 29 34 37 39 40 42 44 44 46 43
28 29 30 30 30 30 29 27 26 26 24 22 22 22 21 22 22 23 25 27 28 28 29 29 29 29 30 28 28 27 28 30 30 31 34 36 38 40 42 44 45 45 45
31 33 32 32 33 33 31 28 26 25 24 24 24 24 23 23 24 25 26 28 29 29 31 31 31 30 30 29 28 28 28 29 33 32 33 35 37 39 40 44 45 46 46
35 35 34 34 34 33 30 27 26 25 24 25 25 24 24 26 26 26 27 29 30 32 33 32 31 30 29 29 28 27 27 27 28 32 32 33 36 39 41 41 45 46 47
37 38 38 37 36 32 28 26 24 25 24 24 24 25 26 27 27 27 27 28 30 31 31 29 29 29 29 28 28 27 24 25 24 25 27 31 36 36 41 40 42 45 48
37 38 39 38 35 30 26 24 24 24 23 23 25 26 27 27 27 28 29 30 33 30 28 28 27 27 27 27 25 23 24 22 23 20 19 23 28 34 38 42 44 45 47
36 37 39 38 33 30 26 25 23 20 19 20 23 26 29 28 28 28 29 29 27 28 29 28 28 26 25 24 24 21 20 20 19 17 14 15 19 23 26 35 43 46 49

GFSSE_700_spd_162.txt.gz
Wind_Speed
9 11 14 12 10 9 8 6 5 6 6 5 6 6 7 7 8 8 8 8 8 8 8 8 8 8 8 8 8 8 8 8 7 6 5 5 4 4 5 4 4 3 2
7 12 15 14 11 9 5 3 2 2 4 3 4 6 7 8 9 9 9 9 8 7 7 7 8 8 9 9 8 9 9 10 9 8 6 5 4 2 4 5 4 3 3
6 13 15 15 13 9 5 2 2 0 1 3 4 6 7 8 9 10 10 10 10 10 9 9 8 8 8 9 10 10 9 9 10 10 9 8 6 6 3 5 4 4 3
8 12 15 15 13 9 7 4 3 4 1 2 3 5 6 7 8 9 10 10 11 10 10 10 10 10 10 10 10 10 11 10 10 10 10 6 6 5 3 5 5 5 5
11 12 15 15 13 12 10 5 3 5 3 3 3 4 5 7 8 9 9 9 9 10 11 10 10 10 10 10 11 10 10 10 10 10 9 11 11 8 7 5 6 5 6
12 10 13 14 12 14 10 9 7 6 4 4 4 5 6 7 8 9 10 10 9 10 10 11 11 12 12 11 11 11 9 9 9 11 10 7 10 10 9 8 7 7 6
8 10 13 13 15 13 14 10 8 8 7 7 5 7 8 9 9 10 11 12 12 12 12 12 12 12 13 14 14 13 12 11 10 9 12 12 11 9 9 9 9 10 10
10 11 13 13 14 14 13 12 10 9 9 9 8 10 11 11 11 12 13 14 14 14 14 14 14 14 15 15 16 17 16 15 14 13 14 14 13 12 10 10 11 11 11
12 13 13 13 13 15 13 13 11 12 12 12 11 12 14 13 13 14 15 17 18 18 18 18 18 18 18 18 19 20 21 20 18 17 16 18 17 13 14 13 15 16 14
13 14 12 14 14 16 15 15 14 13 13 14 14 16 16 17 17 18 19 22 21 21 21 21 21 21 22 21 22 22 22 23 23 20 21 20 21 18 17 17 19 20 18
14 14 14 15 15 16 16 15 14 15 14 15 17 19 19 20 21 21 22 22 23 24 24 24 24 24 24 24 25 24 24 24 24 25 24 22 21 18 16 21 23 24 24
16 15 16 16 17 17 16 15 15 16 17 18 18 18 17 19 21 20 23 24 25 26 26 25 25 26 27 24 26 25 23 23 22 23 22 21 21 20 21 24 24 24 28
16 18 18 16 17 18 17 18 18 17 15 15 16 17 18 19 19 21 22 23 24 24 23 22 22 22 20 21 23 26 23 24 23 24 27 25 26 25 25 27 27 27 28
20 18 18 18 20 19 19 19 17 16 15 14 15 15 16 17 18 20 19 20 19 18 18 18 18 18 18 19 20 22 24 26 26 27 29 30 31 32 32 32 33 32 30
23 21 20 20 21 20 21 18 17 15 13 13 14 15 15 15 16 16 17 16 16 16 16 17 18 18 18 18 19 20 22 24 27 30 34 36 36 38 39 38 38 36 32
25 23 21 22 22 23 21 19 18 15 13 12 14 15 16 15 15 16 17 17 18 17 17 18 18 19 20 20 20 20 21 22 24 25 28 31 36 37 37 36 38 40 39
29 26 25 25 25 25 22 22 19 17 16 15 15 16 17 17 18 18 19 19 20 21 21 19 18 18 19 19 19 19 20 22 24 24 25 31 36 36 34 35 37 39 39
30 28 29 28 27 26 25 25 24 22 21 19 19 18 18 19 21 21 21 21 21 21 21 22 22 22 22 22 21 21 21 21 23 25 27 36 34 32 33 34 36 39 40
35 32 33 32 30 30 29 28 27 27 26 25 23 21 21 21 22 23 23 24 24 24 23 24 24 25 26 25 23 22 22 25 24 24 31 33 33 32 34 35 37 39 41
41 39 35 36 35 33 31 30 31 30 30 30 28 26 24 23 24 25 26 27 27 25 25 26 27 29 30 28 27 25 25 26 27 27 31 33 32 32 33 35 36 39 40
45 39 34 36 37 35 34 34 34 33 33 32 32 29 26 25 25 26 27 27 26 26 27 29 30 31 30 28 26 23 24 26 24 25 31 32 33 35 33 35 38 39 41
43 39 35 36 37 38 37 37 37 37 36 34 32 30 29 27 26 26 25 25 26 27 28 30 32 32 32 30 26 23 19 25 24 24 25 31 33 31 35 37 36 38 40
39 39 38 36 36 39 40 41 40 38 37 36 33 30 29 27 26 26 25 25 27 30 31 31 31 30 31 28 27 24 20 19 20 27 27 29 30 32 30 32 36 38 42
38 38 38 38 37 40 43 42 40 39 39 35 34 29 28 27 26 24 24 25 28 29 29 31 30 26 26 26 26 26 25 22 21 21 24 31 25 30 30 30 31 33 35
39 37 37 39 39 43 40 41 37 37 39 35 30 29 28 28 26 25 25 26 26 28 30 30 26 26 27 26 24 22 22 25 23 23 21 23 23 27 28 29 25 24 27
37 38 33 36 39 42 38 40 34 38 36 33 28 28 28 27 25 25 25 26 27 28 27 27 29 28 26 25 27 26 25 24 25 25 24 24 21 24 27 33 28 24 24

GFSSE_700_spd_165.txt.gz
Wind_Speed
8 9 12 13 12 10 9 7 7 7 7 7 8 8 9 9 9 9 9 8 7 7 7 8 8 9 9 10 10 11 11 11 11 9 7 6 5 5 2 2 1 2 2
4 5 13 15 14 12 9 6 5 5 5 6 6 6 8 9 8 9 9 9 8 8 7 7 8 8 9 9 10 10 10 9 10 10 10 7 8 6 4 4 2 2 3
6 6 12 17 16 13 10 8 5 4 4 5 4 5 6 7 6 7 7 7 7 7 7 7 7 7 7 7 7 8 8 8 8 8 9 6 6 7 5 4 3 2 2
5 7 14 18 17 14 11 7 7 5 4 3 3 4 3 4 4 5 6 7 6 6 6 6 6 6 6 6 6 6 6 6 6 6 5 6 10 8 6 4 3 3 3
8 9 14 17 16 15 13 11 8 5 5 4 3 2 1 1 2 4 5 6 6 6 6 6 5 5 5 5 6 6 5 6 8 8 7 7 5 8 8 4 2 4 4
10 10 13 13 15 14 16 11 8 6 7 6 6 4 3 4 5 5 5 6 7 8 7 7 7 7 7 6 5 5 5 6 9 10 12 13 5 5 5 6 5 5 5
10 11 12 14 15 15 18 13 11 10 10 9 8 7 6 6 7 7 7 8 9 9 9 9 9 9 9 9 9 8 8 6 7 10 13 13 9 5 6 6 5 7 8
12 12 13 15 14 17 16 15 14 13 12 11 10 10 9 10 10 9 10 10 12 13 12 12 12 12 12 12 12 12 12 11 9 10 13 16 12 9 8 9 10 9 10
12 13 14 15 16 17 18 16 16 15 14 14 13 12 11 12 12 11 11 13 15 15 15 15 15 15 16 16 17 18 17 16 13 12 13 16 16 14 13 13 14 14 13
14 15 15 16 17 17 18 17 16 16 14 14 14 14 13 13 14 14 15 16 18 17 16 17 18 19 20 20 20 21 20 20 19 17 16 15 19 17 16 17 18 17 16
15 15 16 16 16 18 18 18 17 17 15 15 15 15 16 16 16 16 18 18 18 19 20 21 22 23 22 22 21 22 21 20 20 21 19 19 20 19 18 19 20 20 20
15 16 14 15 17 18 18 18 17 16 16 16 17 17 17 16 15 17 19 20 22 21 21 22 22 21 19 19 20 22 20 18 20 19 20 20 21 21 19 21 23 23 22
16 17 15 16 18 18 18 18 18 17 17 18 17 15 16 17 17 17 17 18 19 18 18 18 18 18 17 18 19 19 19 19 20 21 21 22 23 22 21 24 24 25 24
19 17 16 18 18 19 20 21 20 19 17 17 16 15 16 15 15 16 16 14 15 15 16 16 16 17 17 17 17 17 18 19 20 23 24 25 27 27 27 27 28 29 28
22 20 20 19 18 20 21 21 20 19 16 16 15 13 13 13 13 14 14 13 15 16 16 16 17 18 18 19 19 19 18 19 20 21 26 31 31 32 35 35 35 35 34
24 22 23 22 20 18 19 20 21 18 16 15 14 12 13 13 13 15 15 15 15 16 17 19 20 21 21 20 20 20 20 21 21 22 27 29 31 31 31 32 33 34 35
28 23 24 26 22 20 21 21 22 20 19 18 16 14 15 15 15 16 18 18 18 18 19 20 20 20 20 19 19 19 19 20 20 23 30 30 28 27 29 31 31 32 33
32 26 24 27 27 25 25 25 24 22 22 22 20 19 19 19 17 18 20 20 21 21 22 22 22 22 22 23 22 22 22 21 22 26 28 30 29 29 30 30 31 31 32
35 33 31 29 31 30 29 29 27 25 26 26 26 24 25 24 22 22 22 22 23 23 24 23 24 25 25 25 25 25 25 25 27 28 29 31 31 30 29 30 31 32 33
40 39 36 33 33 34 34 32 31 29 29 29 29 29 28 28 27 26 25 24 25 26 27 27 28 29 27 27 27 30 27 25 26 28 29 32 31 31 31 33 33 33 34
43 42 40 38 35 35 37 36 34 32 31 31 30 30 29 29 29 27 27 26 26 28 28 27 29 30 30 30 28 28 24 22 24 26 29 31 31 29 31 33 33 35 37
47 46 42 36 36 36 37 37 36 35 35 34 33 29 30 32 31 29 30 28 28 29 28 28 29 30 30 27 24 22 21 21 23 25 27 29 29 29 29 33 34 34 36
49 48 42 37 35 37 38 39 40 39 37 35 32 31 33 33 32 30 29 29 29 28 27 28 29 29 28 26 23 21 20 21 24 25 26 27 28 29 28 31 33 35 36
48 46 40 38 37 37 42 40 38 37 35 33 32 33 34 33 30 30 31 30 29 28 27 28 26 28 27 25 24 20 16 15 17 21 26 25 25 28 29 28 30 32 34
39 40 38 36 36 38 42 41 38 37 38 36 32 33 33 31 30 31 31 30 28 28 27 26 26 25 24 24 23 21 22 19 18 19 20 22 25 28 33 30 29 29 30
37 35 34 35 36 34 37 39 36 38 39 35 32 30 30 30 31 30 31 29 27 26 25 26 24 24 25 23 20 20 21 23 23 23 22 21 19 26 31 35 35 33 26

GFSSE_700_spd_168.txt.gz
Wind_Speed
11 16 17 16 14 13 12 11 9 9 9 9 9 10 9 9 8 7 6 6 6 5 5 6 7 7 8 9 9 9 10 10 11 11 10 9 10 7 6 4 4 4 4
8 10 18 17 17 15 13 12 10 9 9 9 9 10 9 8 8 7 5 5 5 5 5 5 5 5 6 6 7 6 7 7 8 8 8 8 9 7 5 4 4 2 2
12 11 14 18 18 17 14 12 11 10 9 9 8 9 7 6 6 6 4 3 4 4 4 4 4 4 4 4 4 3 4 4 4 5 5 6 6 7 6 3 3 2 1
12 12 15 19 20 18 16 14 11 10 9 9 8 7 7 5 4 4 3 3 3 3 2 2 2 3 3 3 3 3 4 3 4 4 4 6 5 6 6 3 1 1 1
11 11 17 20 19 18 16 15 11 10 9 9 8 8 6 4 2 0 1 1 1 1 1 1 1 1 1 1 1 1 3 4 5 4 1 4 2 2 3 3 0 0 2
10 12 17 18 18 18 17 16 12 10 9 10 8 8 7 6 4 4 4 4 2 3 4 4 4 3 3 3 3 4 4 5 7 8 8 4 3 6 3 0 1 2 4
6 9 14 17 18 18 17 17 13 12 11 11 11 11 9 7 5 6 7 7 6 6 7 7 6 7 7 6 7 7 7 8 8 9 11 8 5 6 8 5 4 4 5
9 10 14 18 18 18 18 19 15 14 13 13 13 12 11 10 9 9 11 11 10 10 10 10 10 11 11 11 12 11 11 11 11 12 14 10 9 7 8 10 9 9 8
12 14 15 17 18 18 20 19 17 16 16 15 15 15 14 12 12 12 14 15 15 14 15 14 13 15 15 16 16 16 16 15 13 14 16 16 13 10 10 12 14 14 13
14 16 16 17 19 19 21 20 19 18 18 18 17 17 15 14 15 16 18 18 18 18 17 16 17 18 18 19 20 20 20 18 18 17 17 19 19 14 15 16 18 18 16
18 18 18 18 19 20 21 21 21 19 19 18 17 16 16 16 19 20 21 19 18 19 19 20 21 21 20 21 21 22 21 20 20 19 19 20 21 20 17 19 20 21 20
19 18 18 18 18 19 20 20 19 19 18 17 17 17 18 19 20 19 17 17 17 19 18 18 18 17 17 17 17 19 19 19 19 20 21 20 20 21 20 20 21 22 22
21 20 19 19 18 18 18 17 18 18 17 17 17 19 19 18 17 15 14 14 14 14 13 13 14 15 15 16 16 17 15 17 18 19 22 22 22 23 22 21 20 21 23
24 23 23 20 19 17 16 16 17 17 17 18 19 19 17 17 16 13 10 11 11 11 11 11 12 13 13 14 15 16 17 18 19 23 22 22 22 23 25 26 27 26 26
24 25 24 22 20 17 16 14 14 17 19 19 20 20 17 15 13 11 10 11 11 12 12 13 14 15 17 17 17 18 18 19 23 26 26 26 25 25 25 27 30 32 33
25 26 27 25 22 20 17 15 14 19 20 20 20 18 16 14 13 12 12 13 13 14 16 16 16 17 18 19 19 19 18 19 25 26 27 27 27 26 27 28 28 29 32
27 28 28 26 25 23 20 18 17 19 21 21 20 20 18 16 15 15 14 15 16 17 18 19 20 20 20 21 22 22 22 24 25 26 27 27 27 27 27 28 31 31 30
28 29 29 27 24 25 26 25 24 23 22 22 23 22 20 18 18 18 18 17 18 19 19 20 20 20 21 22 24 24 25 26 26 27 28 29 28 27 28 29 30 32 33
27 31 31 28 26 25 28 30 29 27 24 24 26 26 23 22 23 23 23 21 21 22 23 23 21 21 22 24 25 26 27 28 28 29 30 30 29 28 29 30 31 32 32
32 30 32 31 28 29 28 32 34 31 28 27 28 29 27 26 27 27 26 25 25 26 25 25 24 24 25 28 28 28 28 29 30 28 28 28 27 27 27 29 30 31 30
37 32 30 27 24 25 27 32 33 35 32 31 31 31 29 28 29 28 27 27 28 28 27 26 26 28 28 29 30 30 28 26 26 26 27 27 26 26 26 27 28 28 29
38 37 36 32 29 29 30 28 31 36 37 35 35 33 31 30 30 29 28 29 30 30 29 29 30 30 29 28 27 26 25 26 25 26 26 26 26 25 27 28 29 30 30
40 41 40 38 34 33 34 33 29 32 38 40 38 34 32 31 30 30 28 29 30 30 30 31 31 31 30 27 22 21 22 23 23 24 24 23 24 25 27 28 30 31 30
41 41 44 40 38 37 36 32 29 30 33 37 36 35 33 31 30 30 29 30 31 32 32 32 32 31 29 27 24 20 19 20 20 21 22 23 24 26 27 28 29 30 30
45 43 43 44 43 38 34 29 31 31 31 35 37 35 32 31 31 30 30 31 32 33 34 34 33 31 28 26 24 22 18 18 20 21 22 22 28 30 30 30 30 30 30
43 42 42 45 43 36 29 26 29 28 27 29 31 33 32 30 30 30 32 32 34 34 33 32 30 27 25 24 23 20 19 18 18 18 20 20 26 31 34 34 32 31 31

GFSSE_700_spd_171.txt.gz
Wind_Speed
13 16 15 14 16 16 15 13 12 10 10 10 10 9 7 7 6 6 4 4 3 4 4 4 4 5 5 6 7 7 8 9 10 10 10 10 10 9 9 7 7 6 5
9 13 17 16 18 18 16 14 12 11 10 9 9 9 8 6 6 5 4 4 4 3 3 3 3 4 4 4 5 5 6 7 8 8 9 8 8 7 7 6 5 5 5
13 12 17 19 19 19 16 15 13 11 10 10 9 9 7 6 5 5 4 3 3 3 3 3 3 3 3 3 4 5 5 6 6 7 7 7 7 6 7 6 4 4 3
13 12 14 19 20 18 17 15 13 12 11 11 11 10 9 6 5 4 3 2 2 2 3 3 3 2 1 0 2 2 3 4 5 5 5 5 4 4 4 4 3 1 1
13 13 16 20 21 19 17 16 14 13 12 13 12 11 9 8 5 4 2 2 3 4 4 4 4 4 4 3 3 3 2 2 2 2 2 3 2 3 3 1 1 2 1
12 11 16 21 22 20 19 18 15 13 13 13 12 12 11 9 7 5 4 5 6 6 6 5 6 5 5 5 6 6 7 7 6 4 3 3 2 3 5 3 2 2 2
8 9 17 21 21 20 20 19 17 15 14 13 13 13 12 10 8 7 6 8 11 10 9 9 8 8 8 8 8 9 10 11 12 12 9 6 5 5 6 6 5 4 4
7 8 14 18 20 20 20 20 18 16 15 15 15 14 12 12 9 9 9 12 14 14 14 13 12 11 11 11 11 12 13 14 15 17 16 10 8 8 9 9 9 8 9
11 11 11 15 18 19 20 20 20 18 16 17 16 15 14 13 12 12 13 15 17 18 17 16 15 14 14 15 15 16 16 16 16 17 18 18 12 12 13 13 13 13 13
13 11 12 14 17 19 20 21 21 20 19 18 19 17 16 15 15 15 16 18 20 20 18 17 17 17 18 19 19 20 20 19 19 19 19 20 19 13 15 17 17 16 16
17 13 14 16 18 20 22 22 23 23 21 19 20 19 18 17 17 17 18 20 20 18 18 19 19 18 18 18 19 19 19 18 19 20 21 21 21 18 17 19 20 21 19
18 15 16 18 19 21 21 22 23 22 21 20 19 19 18 17 17 18 18 18 19 19 19 17 15 14 13 13 14 14 14 16 16 17 19 20 21 21 20 21 21 22 22
18 19 19 21 20 19 20 20 20 19 19 18 18 18 17 17 19 18 17 18 18 16 14 12 11 11 11 12 13 14 15 17 16 15 16 18 18 21 22 23 23 22 24
20 21 23 22 19 20 19 18 18 17 17 18 18 18 18 18 18 16 15 14 12 10 10 9 10 11 12 13 13 15 19 19 18 19 18 18 19 19 20 23 27 28 29
22 22 25 24 21 21 20 19 17 15 18 19 18 18 17 17 16 14 12 11 10 10 10 11 12 13 13 14 16 17 21 22 22 22 22 22 21 21 21 22 23 26 30
22 22 26 25 24 24 24 21 18 17 18 19 19 19 18 17 14 13 12 12 11 11 12 12 14 15 16 16 17 18 21 22 22 22 22 22 22 23 24 25 25 26 29
20 22 26 27 29 27 27 25 20 19 20 20 20 20 19 18 16 14 14 14 14 14 14 14 16 18 18 19 21 22 23 24 25 25 24 24 25 25 26 26 27 28 29
23 23 27 31 32 31 29 28 23 23 24 24 22 21 21 21 20 18 17 17 17 17 17 18 19 20 21 21 22 24 25 26 27 28 27 27 27 27 27 28 28 29 30
24 26 26 30 34 31 28 30 28 28 28 29 26 24 24 25 24 21 20 21 20 21 21 22 22 22 24 24 24 26 27 29 30 30 30 29 27 26 27 28 28 29 29
27 28 29 27 28 31 27 26 26 29 32 33 32 29 28 28 27 25 24 23 23 23 24 24 24 25 26 26 27 29 31 32 32 31 29 26 24 24 25 27 27 27 28
33 35 32 31 27 25 25 25 25 25 25 32 36 34 32 30 29 28 27 26 25 25 25 26 26 26 27 28 30 31 33 33 33 30 26 24 25 26 27 27 27 27 27
37 36 37 35 32 29 27 22 23 25 25 28 32 36 36 34 32 31 30 29 28 28 28 28 28 28 29 31 32 33 34 33 31 28 26 26 26 27 26 27 27 26 25
39 40 41 37 36 34 33 31 28 30 28 24 25 31 38 38 36 33 31 30 29 29 30 29 28 28 30 33 34 33 31 30 27 28 26 26 25 24 24 26 26 25 24
40 40 40 39 38 36 35 36 35 33 22 23 23 28 35 37 36 34 33 32 32 31 31 29 29 30 31 32 33 31 28 27 26 26 25 26 27 28 28 27 28 27 26
41 42 42 40 41 39 40 42 38 23 19 20 24 29 33 35 34 33 32 32 30 31 31 31 31 32 32 30 29 27 26 24 25 26 27 28 28 28 27 27 27 27 27
43 45 44 42 42 43 46 39 28 19 17 20 19 22 28 30 30 31 30 30 30 31 33 34 34 33 32 31 29 26 23 21 22 22 24 27 29 29 29 29 29 29 31

GFSSE_700_spd_177.txt.gz
Wind_Speed
15 15 14 13 12 11 10 12 10 9 8 7 6 6 5 4 4 4 4 4 4 3 3 4 5 5 5 7 8 9 11 11 12 12 12 11 10 10 10 9 10 10 11
13 16 16 15 14 13 12 12 11 10 9 8 8 7 6 4 3 3 4 4 4 3 3 3 3 3 4 4 6 7 9 9 10 10 11 11 9 9 8 8 8 8 9
12 18 16 15 15 15 13 12 12 12 11 11 9 7 5 5 3 3 4 4 4 4 4 5 5 4 3 3 4 6 7 9 9 9 9 8 8 7 6 6 6 6 6
13 17 16 15 17 16 14 13 13 13 13 12 10 8 6 5 3 2 2 3 4 5 6 6 6 7 6 4 3 5 6 7 6 6 6 5 6 6 5 4 4 4 4
10 15 16 16 16 15 15 15 15 14 13 12 10 8 7 6 4 2 1 2 3 5 6 8 7 7 6 5 4 4 4 4 4 4 4 5 3 3 3 3 2 2 2
7 12 16 15 15 17 16 16 17 16 14 13 11 9 9 7 6 3 2 2 2 3 6 7 8 8 7 7 5 4 4 4 3 2 3 4 5 5 3 2 2 3 4
6 8 11 14 15 16 17 17 17 17 15 13 12 11 10 9 7 6 5 5 4 4 3 5 7 9 9 9 8 7 6 7 6 6 5 5 7 8 6 5 4 3 3
9 9 10 12 14 16 18 18 18 18 15 13 12 11 10 10 9 9 8 8 6 6 6 6 7 9 11 12 11 11 11 12 11 9 8 8 9 10 9 8 7 7 6
10 9 9 11 12 17 20 20 20 19 17 15 13 12 12 12 12 11 11 10 9 9 10 10 10 10 11 12 12 13 13 13 13 13 11 10 9 11 11 10 10 10 10
14 13 13 12 13 17 21 21 21 21 18 17 15 14 13 13 13 13 12 12 11 12 13 14 13 12 13 14 15 15 14 13 13 12 12 12 10 10 11 12 13 13 13
15 17 15 15 15 17 21 22 23 23 21 20 17 15 15 15 15 15 13 13 13 14 15 15 15 14 13 13 12 11 10 9 9 9 8 9 9 9 11 12 13 13 14
17 16 16 19 17 17 22 23 24 24 22 21 18 17 17 16 15 16 15 14 15 16 16 15 15 12 10 8 7 6 5 5 6 6 7 8 9 9 10 9 4 6 12
25 19 18 21 20 19 24 24 25 24 23 21 20 19 18 17 16 17 16 16 16 16 15 13 12 9 6 6 6 6 6 5 5 6 7 8 10 11 12 13 14 16 17
26 22 21 22 24 22 25 25 25 25 24 22 20 19 19 19 18 18 18 18 16 15 13 11 10 8 7 6 6 6 6 5 5 6 7 9 10 12 14 15 14 14 16
27 26 23 23 23 25 25 26 26 25 25 24 22 21 20 19 19 19 20 19 17 15 13 11 10 8 7 6 7 7 8 8 8 9 10 11 13 15 17 18 17 15 16
27 29 25 23 25 24 24 27 29 28 27 25 23 22 21 20 20 20 20 19 16 14 13 12 10 10 9 9 9 9 9 10 11 12 12 13 15 17 19 21 21 20 20
28 28 25 26 22 22 24 26 31 29 28 26 24 23 22 21 20 20 19 18 17 16 16 15 14 13 13 13 13 13 13 13 13 13 14 15 17 19 21 22 23 23 22
28 31 27 27 27 24 25 27 31 31 30 29 27 26 24 23 21 20 19 19 19 19 19 19 17 17 17 18 17 16 16 17 16 17 17 19 20 22 23 24 25 25 24
26 30 31 29 28 25 24 27 30 32 33 31 30 29 28 27 25 23 22 22 23 24 23 22 22 21 20 20 20 20 20 20 19 19 19 20 22 23 24 24 23 23 23
26 29 30 30 30 26 26 27 28 33 33 33 33 31 31 32 30 29 27 27 28 28 28 27 25 24 23 23 23 22 22 22 22 21 22 22 24 25 25 23 23 23 24
24 29 31 32 30 28 27 30 29 28 29 32 32 34 35 36 35 34 33 32 32 32 31 30 29 27 26 25 25 25 25 25 24 24 23 23 25 26 24 24 24 25 25
21 23 27 31 29 31 29 30 28 26 26 28 31 33 33 37 37 37 36 35 35 35 34 33 31 30 29 28 27 26 27 27 25 26 25 26 27 25 24 23 24 24 24
24 22 25 29 30 30 33 33 33 31 31 29 29 31 32 34 35 37 36 37 37 37 36 35 33 32 30 30 28 28 28 30 28 27 27 27 27 26 25 24 23 23 23
29 29 29 31 33 34 35 35 36 35 34 33 39 38 35 36 34 39 34 35 36 37 36 36 35 33 31 29 30 29 28 30 29 30 31 29 28 26 25 26 25 25 25
35 38 39 38 36 38 38 38 39 38 37 41 45 49 51 50 54 48 39 33 34 35 36 35 35 33 30 32 31 28 29 31 32 34 33 30 30 28 27 26 24 25 24
27 30 34 38 38 39 40 39 39 38 39 46 50 53 43 48 42 44 36 30 32 33 32 32 33 31 32 32 32 28 31 33 34 33 31 31 31 29 28 29 28 25 24

GFSSE_700_spd_180.txt.gz
Wind_Speed
8 15 15 11 8 10 9 9 11 10 8 7 6 4 4 4 5 5 5 5 6 6 7 6 6 6 7 7 8 10 10 11 11 11 10 9 9 9 8 9 9 10 9
9 13 17 13 10 10 9 9 10 10 9 7 6 4 3 2 4 5 5 6 6 5 6 7 7 7 6 6 7 8 9 9 9 11 10 9 8 8 7 6 7 8 8
7 15 17 14 12 11 10 9 9 9 8 8 7 5 4 2 3 4 5 6 6 5 5 6 6 6 6 6 6 6 8 8 9 10 9 9 7 7 6 6 6 5 5
8 13 16 15 13 12 11 10 10 9 9 9 8 7 6 4 3 2 3 4 4 6 6 5 4 5 5 5 5 5 5 6 6 7 7 5 5 6 5 5 5 5 5
5 10 14 14 13 13 14 13 12 11 11 11 9 8 7 6 4 2 1 2 3 5 5 5 4 4 4 3 2 1 2 2 3 3 3 2 2 3 4 3 2 2 3
5 8 14 14 14 16 16 16 14 14 13 12 11 9 8 8 6 4 2 1 2 3 3 3 4 4 2 2 3 3 2 2 2 3 4 4 3 2 3 3 3 2 1
6 10 15 14 16 17 16 18 16 15 14 13 12 11 10 9 8 7 5 4 3 3 4 5 6 4 4 5 5 6 6 5 4 5 6 7 6 5 4 4 3 3 3
8 12 15 17 17 17 17 19 18 16 15 15 13 12 11 10 9 9 8 8 6 6 7 7 8 8 7 7 8 8 8 9 9 8 8 10 9 9 8 7 7 6 7
13 15 16 17 17 17 18 20 19 17 16 16 15 14 14 12 10 10 10 10 9 9 9 11 11 11 10 9 9 10 11 12 13 11 10 13 10 10 9 10 11 10 10
17 18 18 18 16 17 19 21 21 19 19 18 18 17 16 14 13 12 12 12 12 12 12 12 13 13 12 13 12 11 12 12 13 12 13 9 9 11 10 12 13 13 13
21 21 19 19 18 17 18 21 22 22 21 21 20 19 18 17 15 14 14 15 15 15 15 14 13 13 13 13 11 9 8 8 8 9 9 7 8 9 11 12 13 14 14
24 25 21 20 20 20 21 23 24 23 23 23 23 21 20 18 17 17 17 17 17 17 16 15 14 14 13 11 9 6 5 6 7 7 6 5 6 6 7 8 11 12 13
24 28 27 20 23 24 24 23 24 23 23 23 23 22 21 19 18 17 18 19 19 18 18 16 15 13 10 9 7 6 5 6 7 8 7 7 7 7 7 8 10 12 14
26 27 30 29 26 27 26 24 24 25 25 24 25 23 22 20 19 19 20 20 20 19 17 17 14 12 10 9 8 7 6 6 6 7 7 7 8 8 8 8 10 11 13
28 29 30 31 29 29 28 27 27 28 27 27 26 25 23 22 21 21 21 22 21 19 18 16 13 13 12 10 9 9 7 7 7 7 7 8 8 10 9 9 11 14 16
29 28 30 31 30 29 29 29 27 28 29 29 28 27 25 25 24 24 23 23 22 21 19 17 16 15 14 13 11 10 9 9 9 9 9 10 11 12 13 12 13 15 17
25 29 32 31 31 29 29 28 27 26 30 32 32 30 28 28 27 26 26 25 24 22 21 20 19 18 17 16 15 14 14 14 14 14 14 14 14 15 16 17 18 19 20
30 28 32 34 33 31 28 26 27 28 29 34 34 33 32 31 29 29 28 27 25 24 23 23 22 22 21 20 19 18 18 18 18 18 18 18 18 18 18 19 20 21 22
32 30 31 34 34 30 30 27 26 27 30 34 36 35 35 33 32 33 32 30 28 27 26 26 25 25 24 24 23 23 22 22 22 22 22 21 20 20 19 21 23 24 23
31 30 30 32 35 33 31 29 32 31 31 34 37 38 37 36 36 36 35 33 32 31 30 30 30 29 29 27 27 27 26 26 25 24 24 24 24 23 21 22 23 23 23
28 28 29 32 35 35 33 33 32 30 31 33 35 37 37 37 37 36 40 37 37 36 35 34 34 33 33 31 31 31 29 28 28 27 26 26 25 24 23 24 24 24 24
28 26 30 30 33 33 32 31 34 33 31 30 28 31 35 37 37 39 41 42 40 40 39 38 37 36 35 33 34 33 32 31 31 29 29 28 26 23 23 23 24 25 26
28 30 30 27 31 34 34 37 35 34 31 30 29 27 29 34 38 41 43 43 41 42 41 41 39 37 36 35 34 34 33 34 30 29 29 28 25 24 24 24 24 25 26
28 30 31 29 28 36 38 37 36 35 34 35 38 35 34 34 36 39 39 38 48 47 42 42 40 38 37 35 35 33 31 32 30 29 29 27 26 26 27 26 25 26 28
29 31 33 34 34 35 39 41 41 41 40 41 40 46 48 36 38 40 41 46 41 43 47 42 38 38 36 37 33 31 30 27 25 28 28 27 27 28 28 28 28 28 28
24 30 35 36 37 39 39 41 43 42 40 39 40 44 48 53 57 58 62 63 59 49 44 48 42 36 32 32 31 30 29 26 26 27 28 30 28 29 29 29 28 27 29

GFSSE_700_spd_186.txt.gz
Wind_Speed
7 5 8 10 7 6 4 4 5 6 5 6 7 8 10 10 10 10 9 9 10 10 10 10 9 10 11 11 11 11 11 11 11 12 11 11 10 9 8 8 7 9 8
6 7 8 11 10 7 5 4 5 5 6 5 5 6 8 8 9 10 10 10 10 10 11 10 8 8 9 10 10 11 11 12 11 10 10 10 10 9 8 8 7 9 7
2 7 9 10 11 8 6 5 6 4 5 4 5 5 6 6 8 9 10 10 10 9 9 9 7 8 8 9 10 10 11 10 8 8 9 8 8 7 7 6 7 7 6
4 6 7 8 11 10 8 6 6 5 6 5 4 4 4 5 5 8 8 9 9 8 7 7 7 7 6 6 8 9 9 7 5 4 7 9 7 4 4 5 5 5 5
6 5 9 8 11 10 9 8 7 7 6 6 5 4 3 3 4 5 6 6 6 6 6 6 5 6 6 4 4 5 5 4 2 1 2 2 5 3 2 3 4 4 4
10 5 8 9 11 12 11 9 8 9 8 7 6 5 4 4 4 3 4 3 4 3 3 4 4 3 2 3 2 2 2 0 2 2 3 5 3 2 2 2 2 2 2
12 6 10 10 13 13 12 11 10 10 10 9 8 7 6 6 6 6 5 4 3 2 1 1 1 1 1 1 2 3 3 3 4 4 8 4 5 5 6 5 5 4 4
15 10 11 13 14 14 14 12 12 13 13 12 11 10 9 8 8 7 7 7 6 5 5 4 4 5 5 4 4 5 5 5 4 4 13 11 9 10 9 9 8 7 6
17 14 15 15 16 17 15 15 15 15 15 15 13 12 12 11 10 9 9 10 9 9 8 8 8 8 9 9 8 7 6 6 6 8 14 17 10 12 11 11 10 10 9
21 18 18 17 17 18 18 17 17 18 18 17 16 15 14 13 12 12 11 11 11 11 12 11 11 12 12 11 11 11 10 8 9 16 21 20 15 12 12 14 13 12 11
23 22 20 22 20 20 20 19 19 19 20 20 20 18 17 17 15 14 13 13 13 14 14 15 14 15 15 15 15 14 13 13 16 23 22 12 13 14 13 15 16 14 13
24 25 22 24 23 23 23 21 21 20 21 22 22 21 20 20 19 18 15 16 16 16 15 15 16 15 16 16 16 16 17 17 22 20 15 13 11 12 14 16 18 17 15
26 26 24 26 24 25 25 23 23 22 22 23 23 22 22 23 21 21 17 18 18 18 18 16 16 16 16 16 15 16 13 16 21 14 13 12 12 13 15 15 15 14 15
29 28 25 25 27 26 27 26 26 24 24 24 24 23 24 24 23 23 20 20 20 19 20 19 18 19 17 18 17 13 14 20 19 12 14 14 15 15 14 13 14 15 15
32 32 30 25 26 27 30 28 28 25 26 24 25 24 24 26 27 26 23 22 22 22 23 21 22 20 20 20 18 17 17 23 18 14 15 16 16 16 12 13 14 14 15
25 35 36 32 24 25 29 33 30 27 25 25 26 25 26 28 29 27 27 25 24 24 26 23 24 20 20 21 20 20 20 23 21 15 18 18 17 17 15 15 16 16 17
25 34 37 36 31 25 27 35 33 29 28 26 27 27 28 30 30 30 30 29 28 28 27 25 25 22 22 20 22 22 23 25 23 20 21 21 20 19 18 17 17 18 18
22 36 39 42 34 28 27 33 34 31 31 28 29 29 29 32 32 31 33 31 31 32 30 28 27 26 25 25 25 25 27 27 28 24 24 25 25 23 22 21 21 21 22
24 27 36 41 38 30 28 30 30 33 32 32 32 29 31 32 33 32 35 35 34 34 33 31 30 30 29 30 29 30 30 29 33 28 29 29 29 27 27 26 26 26 25
21 27 37 40 41 32 30 28 29 35 34 35 31 30 31 30 31 33 37 39 37 37 36 33 33 34 35 34 34 36 35 34 37 33 33 32 34 30 30 30 30 28 27
30 24 36 41 42 33 30 30 29 34 36 34 30 30 29 29 33 35 37 39 40 39 39 38 40 39 41 40 41 39 38 38 37 37 37 38 36 34 33 31 31 30 28
26 22 34 41 37 33 27 30 28 34 39 31 29 31 29 29 33 34 37 39 42 42 44 45 45 43 40 41 41 40 42 41 39 40 40 39 38 35 35 33 31 29 27
26 24 32 36 31 27 25 30 32 34 35 34 33 32 33 34 34 35 37 39 41 43 46 48 45 37 45 41 44 46 45 45 39 41 40 37 38 35 35 31 31 31 26
26 26 26 29 31 30 28 30 31 33 35 34 35 36 37 37 38 37 38 38 39 43 44 47 52 51 58 56 58 52 46 46 42 41 41 37 36 36 32 28 26 29 28
20 24 26 26 27 31 31 32 34 35 38 39 39 40 41 39 38 37 39 40 42 42 48 49 43 48 51 42 45 51 52 40 38 40 36 34 30 28 29 28 26 32 43
20 25 29 28 31 31 32 34 36 38 39 42 43 44 43 42 40 40 39 41 42 43 45 40 33 36 38 40 35 41 45 44 37 41 52 44 41 37 39 46 45 45 50

GFSSE_700_spd_192.txt.gz
Wind_Speed
4 8 6 6 6 6 6 5 4 5 8 8 10 11 10 10 9 9 8 8 8 8 10 10 12 13 13 13 14 14 15 15 15 15 14 12 10 9 10 9 10 10 10
3 5 3 7 8 8 7 7 6 5 7 7 8 10 11 10 10 9 8 8 8 7 8 9 10 11 11 12 12 12 13 13 13 13 12 12 11 9 8 8 9 10 10
2 3 2 6 10 9 8 7 7 6 7 7 7 9 10 9 9 9 9 8 8 7 7 8 9 9 10 10 9 10 10 9 9 10 10 10 11 10 8 7 8 9 9
4 4 4 5 12 11 10 8 8 7 8 8 7 7 8 9 8 8 9 9 8 6 6 7 7 7 8 9 7 7 6 6 5 7 8 9 9 9 7 6 6 6 6
8 8 7 6 12 13 11 10 9 9 8 9 8 7 7 7 7 6 7 8 7 7 6 5 4 5 5 5 3 2 1 2 3 3 5 6 7 7 5 3 3 3 4
8 11 10 8 11 14 13 11 10 10 9 9 9 8 7 7 6 6 4 5 4 6 6 7 5 3 1 1 1 3 5 4 4 2 5 4 5 5 4 2 1 2 2
9 9 11 10 12 14 14 13 11 11 11 10 10 9 8 7 7 7 5 4 3 2 3 4 5 5 4 4 6 7 9 8 9 6 3 3 6 3 3 4 4 4 3
13 8 11 13 13 15 15 15 13 13 12 12 11 10 10 9 9 8 7 6 6 4 3 2 1 1 1 3 5 9 11 11 13 11 8 5 3 3 7 7 7 7 7
17 10 10 14 16 17 18 17 16 15 14 14 13 12 12 11 10 9 8 7 7 7 7 6 5 4 4 3 3 9 9 12 13 12 11 10 8 7 10 9 11 11 10
17 14 11 13 18 20 20 20 18 17 16 16 15 15 14 13 12 11 10 9 8 8 8 7 7 8 7 7 7 12 11 11 12 13 12 13 12 14 14 15 14 13 11
22 17 12 15 17 21 22 22 21 20 18 17 18 18 17 15 14 13 12 12 11 10 10 11 10 11 11 11 11 14 15 13 14 14 11 14 16 15 16 14 17 16 16
29 21 14 12 16 20 24 25 24 23 21 19 18 19 18 17 16 16 15 14 13 13 12 13 13 14 14 14 13 16 17 16 17 17 14 15 13 15 16 15 18 18 19
29 27 20 15 16 19 21 27 26 25 23 20 18 19 19 20 19 18 17 16 15 16 16 15 15 16 17 17 16 19 20 18 17 16 15 16 16 15 16 16 18 20 20
33 27 23 15 17 17 19 24 27 26 23 21 20 19 19 20 21 20 18 18 18 19 19 18 18 19 19 18 19 19 21 20 18 17 14 14 16 18 17 18 16 18 20
29 27 20 16 17 14 13 16 23 25 24 24 22 21 21 21 21 22 21 21 21 21 21 21 21 21 21 20 22 21 21 23 21 18 16 17 18 18 19 18 18 18 19
28 25 21 17 17 17 16 15 15 21 24 26 25 23 22 22 23 24 23 24 24 23 23 23 23 23 22 23 23 23 23 23 23 21 19 20 20 21 20 19 19 20 21
28 27 25 17 20 18 17 18 16 17 21 27 28 27 24 24 20 26 26 27 26 26 25 26 26 25 24 23 26 25 26 25 25 24 24 24 24 24 23 22 22 24 22
30 30 27 20 19 22 18 19 20 18 20 23 28 29 27 27 24 26 31 30 28 28 29 28 28 27 24 25 28 27 28 28 25 27 30 29 29 29 28 27 25 26 26
30 31 29 23 20 21 19 20 19 19 20 21 24 28 30 31 30 30 27 32 30 29 30 29 31 29 25 27 31 32 31 32 28 28 30 34 34 34 34 32 31 30 30
31 31 27 21 23 21 18 19 21 22 23 24 25 25 29 33 33 32 30 31 31 31 31 30 29 32 30 30 32 35 37 36 34 34 36 38 41 37 38 37 37 35 33
24 27 26 26 24 19 22 24 25 24 26 26 26 26 26 31 33 33 32 33 33 33 30 31 32 31 36 37 38 39 42 43 42 41 44 41 46 44 42 41 40 39 36
24 23 24 23 22 19 19 22 24 24 24 27 26 26 25 27 31 33 33 29 30 32 35 36 35 34 40 47 38 43 45 48 50 49 40 47 47 47 46 46 42 41 40
24 23 17 17 21 24 24 23 23 25 25 23 23 25 25 26 29 30 30 32 32 34 36 36 37 38 38 49 36 46 47 52 50 43 48 50 52 49 44 44 37 36 36
17 15 15 18 19 21 19 19 20 20 21 23 24 25 25 27 27 30 32 33 35 37 36 39 40 47 39 52 44 47 60 59 43 42 36 37 32 37 47 43 36 33 33
10 15 15 13 13 15 18 20 22 22 23 24 27 30 31 31 29 31 34 38 38 40 41 43 39 36 48 53 43 45 46 42 43 39 36 37 39 43 42 43 43 50 48
12 10 9 9 12 15 18 22 25 26 27 30 32 32 33 35 33 36 38 40 41 41 44 42 48 41 48 37 42 35 28 32 22 18 18 23 30 36 37 37 39 37 36

GFSSE_700_spd_195.txt.gz
Wind_Speed
3 2 5 3 5 7 5 4 4 4 5 5 5 5 5 6 5 5 6 6 7 8 8 9 9 11 11 12 12 12 13 14 14 14 13 13 12 10 10 9 10 10 11
3 2 1 5 7 7 7 6 5 5 5 6 5 5 4 5 6 6 6 6 6 5 5 7 7 8 10 11 12 11 12 12 12 11 11 11 11 10 9 8 9 9 9
4 4 4 5 8 8 8 8 7 5 5 4 4 4 4 5 6 7 7 6 5 5 4 4 5 6 7 9 9 9 9 8 9 10 9 8 10 10 9 7 7 8 7
5 4 6 5 9 10 9 9 8 7 6 5 4 3 4 4 5 6 7 7 7 6 6 6 5 5 5 6 7 7 7 7 6 6 6 6 7 8 8 6 6 6 6
6 8 8 7 10 12 11 10 9 8 7 7 6 4 4 4 4 5 6 7 8 9 8 7 7 6 5 4 5 6 7 6 6 2 1 2 4 5 6 5 3 3 3
8 6 8 9 11 13 13 12 11 10 8 8 7 7 6 5 4 4 4 5 6 7 7 7 6 5 3 2 4 6 6 5 6 5 3 3 2 3 5 3 2 1 1
16 9 7 10 13 15 16 14 13 11 10 9 9 9 8 7 6 5 4 3 2 3 4 5 5 4 2 2 4 4 6 7 6 6 6 7 4 4 2 2 2 3 2
16 15 8 10 14 18 18 17 15 13 12 11 10 10 10 9 8 7 6 4 3 3 2 1 1 1 2 3 3 6 7 6 5 6 6 6 3 4 6 5 5 6 7
17 16 13 10 14 19 21 19 18 16 14 13 12 12 12 11 10 8 8 6 5 5 5 5 5 6 6 8 6 6 7 9 9 7 5 6 6 6 7 10 8 9 10
18 17 18 13 13 18 21 22 21 19 16 15 15 15 14 13 12 10 10 9 7 7 7 8 8 9 10 13 12 12 12 13 14 14 11 10 7 8 12 13 14 12 13
20 21 22 15 12 16 22 24 24 22 20 17 17 17 17 15 13 12 12 11 10 10 10 10 10 10 11 15 14 14 14 15 18 16 13 16 14 11 11 13 13 13 15
24 26 23 20 17 14 18 25 26 25 22 20 19 17 16 17 16 15 15 14 13 13 12 12 12 12 13 15 15 16 14 15 17 19 17 15 14 12 13 12 13 16 17
26 23 22 21 17 12 12 18 26 27 26 23 21 19 17 17 19 18 16 16 15 15 15 15 15 15 16 16 16 17 16 15 17 18 17 16 15 16 18 19 19 19 18
21 23 20 17 12 10 10 9 16 25 28 25 23 21 18 19 19 19 18 18 18 18 18 18 19 18 19 19 18 18 18 18 19 18 17 16 16 16 17 14 16 15 14
21 19 17 16 13 13 9 9 9 16 24 26 24 22 22 20 18 19 19 20 21 20 21 22 22 23 23 22 20 20 20 19 20 19 19 19 19 20 19 19 17 16 17
26 19 17 18 17 14 13 11 10 8 13 19 23 24 23 24 21 21 22 21 23 24 24 25 26 26 27 25 23 23 22 21 21 19 19 19 21 22 24 22 21 19 19
24 22 27 21 19 16 16 14 14 11 8 9 15 22 25 25 22 28 22 24 23 26 28 28 28 28 29 27 26 25 25 25 24 23 21 24 22 22 25 27 26 23 24
22 28 27 23 20 19 14 17 15 15 12 11 13 16 22 26 27 28 25 25 27 27 26 29 29 29 32 30 29 28 29 29 29 28 26 28 26 26 27 29 31 29 28
26 24 24 24 20 20 14 19 17 16 15 14 13 15 19 24 28 30 31 30 29 28 30 30 32 29 30 29 33 31 31 33 33 33 32 34 33 31 32 31 37 36 31
28 28 26 24 21 22 15 19 20 18 18 16 17 17 19 22 26 31 33 32 31 32 33 33 33 31 28 31 37 34 36 36 37 35 35 36 37 38 38 36 33 39 38
27 24 23 19 21 20 15 15 20 19 18 18 19 19 20 22 25 28 33 34 34 31 33 33 33 34 31 29 33 33 38 38 42 43 41 44 41 42 39 39 41 45 37
24 21 20 18 19 18 16 13 13 14 17 19 19 20 19 20 23 27 28 31 33 34 34 34 33 35 37 38 37 34 43 44 38 38 47 39 47 49 54 47 51 37 38
12 14 14 12 14 13 15 15 16 17 17 17 19 18 18 18 21 24 27 31 33 32 31 31 32 35 38 40 41 36 40 33 46 35 40 40 40 52 41 42 47 43 40
10 12 12 12 13 15 16 15 15 14 17 18 17 20 21 22 23 26 28 31 33 34 33 33 34 36 36 42 52 49 49 41 40 37 43 41 48 44 35 28 27 26 33
6 9 10 10 8 8 9 12 16 17 18 20 22 23 24 26 28 30 31 33 32 35 35 36 38 37 38 41 42 39 47 43 56 42 44 41 39 31 26 26 18 22 18
5 6 6 3 2 4 8 13 16 19 21 24 26 28 28 31 32 32 33 35 36 39 40 40 38 42 41 44 38 45 50 49 40 32 25 27 27 26 25 26 28 27 31

GFSSE_700_spd_198.txt.gz
Wind_Speed
4 0 1 1 1 3 4 4 5 5 5 5 5 7 7 8 8 8 8 9 9 9 9 9 9 9 10 10 10 12 12 11 11 12 12 13 13 13 12 12 12 12 12
5 4 2 2 2 3 4 4 4 4 4 4 4 6 7 8 9 9 8 8 9 9 9 9 9 9 10 10 11 12 12 11 10 10 10 11 12 11 11 10 10 10 11
5 5 3 2 4 5 5 5 4 3 4 4 3 5 6 7 8 9 8 8 8 8 8 9 9 9 9 11 11 11 11 10 9 10 9 9 9 10 10 9 9 9 9
8 6 6 3 5 7 8 7 6 5 4 4 4 4 5 5 6 7 8 8 7 8 8 9 9 9 9 9 10 10 10 10 9 8 7 6 6 7 9 8 7 7 7
11 7 8 6 5 9 10 9 8 6 5 5 4 3 4 4 4 5 6 7 8 8 8 7 7 8 7 6 7 7 8 9 8 5 4 4 3 2 5 6 6 5 5
13 8 6 7 6 11 12 11 10 8 6 5 5 4 2 3 3 2 2 4 5 6 8 8 6 5 5 5 4 4 6 6 6 6 4 3 1 1 1 3 4 3 3
12 13 7 6 8 11 14 14 12 11 9 7 6 6 5 4 3 2 0 2 2 4 5 6 8 8 7 6 5 6 7 5 4 3 3 4 1 2 2 3 2 2 1
12 14 15 11 10 11 15 16 15 13 11 9 9 8 8 7 5 5 3 2 3 4 4 4 6 7 8 10 11 11 10 10 9 7 6 3 1 1 3 5 5 4 4
14 13 17 15 12 12 16 18 18 16 14 12 11 11 10 9 8 7 6 4 3 4 4 5 6 7 8 9 10 11 11 11 11 12 10 9 7 4 4 7 8 7 7
15 16 17 15 12 10 16 19 20 19 17 16 14 13 13 12 11 10 9 8 6 5 5 6 8 9 9 10 11 11 12 12 11 11 12 11 9 7 9 7 10 11 10
18 17 17 16 14 12 12 19 21 21 21 20 18 17 15 14 13 12 11 11 10 9 8 7 8 11 11 10 11 12 13 15 15 13 15 15 13 10 12 12 12 8 11
21 20 16 15 17 16 9 16 22 23 23 22 20 18 16 16 15 15 14 13 12 11 11 10 10 11 12 12 11 11 11 13 14 16 16 16 14 12 11 11 13 13 15
22 21 13 13 14 11 7 10 17 23 24 24 23 20 18 18 18 16 16 15 14 13 14 14 14 14 14 14 13 12 13 13 14 14 15 15 15 13 14 15 19 20 19
16 16 13 12 13 10 8 6 7 15 21 25 25 22 19 19 19 17 16 17 16 16 16 18 18 17 18 17 15 15 15 15 14 14 14 13 13 14 15 17 16 17 18
18 19 14 10 10 11 10 9 7 6 14 22 26 24 21 21 17 13 19 19 19 19 19 20 22 22 22 21 20 19 18 18 18 17 15 14 13 13 15 17 18 19 20
14 17 16 12 10 16 12 13 10 8 7 16 23 23 22 22 18 19 22 22 24 22 23 22 23 24 25 24 23 24 23 22 21 20 20 18 18 16 16 19 19 20 21
14 14 14 15 11 15 11 11 16 13 7 7 14 18 20 21 21 22 22 25 25 27 26 26 26 26 26 26 26 25 26 26 26 27 24 24 24 22 21 23 24 24 24
19 17 13 16 14 14 13 11 16 16 13 10 9 13 17 20 22 24 25 28 27 29 29 28 29 29 28 27 27 27 26 27 33 30 29 28 28 28 27 27 28 26 28
28 28 17 17 16 15 14 14 17 20 18 15 13 11 13 18 21 26 28 29 30 30 31 31 31 31 31 30 29 31 30 30 33 34 34 31 33 33 34 31 30 34 32
35 31 22 20 19 19 17 18 19 23 23 20 15 13 13 16 20 24 27 29 31 32 32 33 32 34 33 32 32 31 31 35 34 35 34 37 41 34 35 40 35 38 36
35 31 29 21 18 17 17 17 19 22 23 20 16 17 15 17 18 22 24 27 30 31 31 32 34 35 35 35 34 35 34 32 33 32 39 37 32 36 40 43 42 43 48
24 24 20 17 19 16 18 19 16 17 19 18 17 18 17 16 17 19 21 24 24 27 30 32 33 34 37 37 38 38 41 41 34 32 27 28 34 32 39 35 40 41 44
14 17 18 16 17 18 19 19 19 17 16 17 17 16 18 17 17 18 19 20 22 25 29 31 35 35 37 37 38 38 44 50 44 36 42 36 30 41 44 33 37 36 27
12 14 15 15 16 17 17 16 19 18 16 15 14 19 18 20 21 18 20 21 24 28 31 32 30 31 33 34 37 40 42 46 51 39 37 30 37 38 41 48 38 30 23
10 12 13 13 13 14 13 18 20 20 19 19 18 20 23 24 23 24 23 25 28 32 34 34 33 33 35 35 37 43 43 39 42 47 41 36 35 39 43 38 33 28 26
10 12 13 13 12 11 9 8 12 15 18 21 21 23 22 25 27 27 28 30 32 32 34 33 37 37 38 39 38 44 41 40 37 37 38 33 28 31 42 41 30 26 28